Content
SEND FEEDBACK

Daily
Averages
Monthly
Summary
United Kingdom

STORNOWAY, SCOTLAND


Home > Europe > United Kingdom > Scotland
Elevation: 43 feet     Latitude: 58 13N     Longitude: 006 19W

WEATHER
 
SELECT A DAY
Number of Records: 246,668;   Date Range: 7/1/96 - 12/16/14
 
SHARE

PRINT THIS DATA

[ ← Previous Day ]
WEATHER ALMANAC - SEPTEMBER 8, 2013
[ Next Day → ]
[ °C ]   °F
Weather ElementAverageHighLow
Temperature36.4 °F60.8 °F (2:20 pm) (12:50 am)
Dewpoint31.1 °F53.6 °F (10:50 pm) (7:00 pm)
Humidity74.1 %94 % (3:50 am)50 % (3:50 pm)
Barometer29.93 in29.98 in (11:50 pm)29.89 in (12:50 am)
Wind Speed6.5 mph13.8 mph (2:20 am)
Weather ElementAverage
Visibility9.4 mi
Wind DirectionSSE (174.2 °)

Weather ElementTotal
Precipitation---
Heating Degree Days34.6 (Base 65)
Averaged from 55 records on September 8, 2013
WEATHER CONDITIONS BREAKOUT
WIND DIRECTION BREAKOUT
WEATHER BY HOUR - SEPTEMBER 8, 2013
[ °C ]   °F
Local TimeTemperatureDewpointHumidityBarometerVisibilityWind DirectionWind SpeedGust SpeedPrecipitationEventsConditions
12:50 AM53.0 °F48.0 °F79 %29.89 in17.0 miESE (120°)12.7 mphRainLight Rain
12:50 AM0.0 °F0.0 °F29.89 in6.2 miSE (130°)8.1 mph
1:20 AM0.0 °F0.0 °F29.89 in6.2 miSE (140°)10.4 mph
1:50 AM0.0 °F0.0 °F29.92 in6.2 miSE (130°)10.4 mph
2:20 AM53.6 °F46.4 °F77 %29.89 inSE (130°)13.8 mphClear
2:50 AM53.6 °F46.4 °F77 %29.89 inSE (130°)9.2 mphClear
3:20 AM53.6 °F46.4 °F77 %29.92 inSE (130°)6.9 mphClear
3:50 AM51.0 °F47.0 °F83 %29.90 in22.0 miESE (120°)9.2 mphRainLight Rain
3:50 AM51.8 °F50.0 °F94 %29.92 inSE (130°)8.1 mphClear
4:20 AM51.8 °F50.0 °F94 %29.89 inSE (140°)8.1 mphClear
4:50 AM51.8 °F50.0 °F94 %29.89 inSE (140°)8.1 mphClear
5:20 AM51.8 °F50.0 °F94 %29.92 inSE (130°)8.1 mphClear
5:50 AM51.8 °F50.0 °F94 %29.92 in6.2 miSSE (160°)9.2 mphPartly Cloudy
6:20 AM51.8 °F50.0 °F94 %29.92 in6.2 miSSE (150°)8.1 mphPartly Cloudy
6:50 AM50.0 °F45.0 °F78 %29.92 in31.0 miSE (140°)8.1 mphRainRain
6:50 AM51.8 °F50.0 °F94 %29.92 in6.2 miSE (140°)5.8 mphPartly Cloudy
7:20 AM51.8 °F50.0 °F94 %29.92 in6.2 miSSE (150°)8.1 mph
7:50 AM0.0 °F0.0 °F29.92 in6.2 miSSE (150°)8.1 mph
8:20 AM0.0 °F0.0 °F29.95 in6.2 miSE (140°)6.9 mph
8:50 AM0.0 °F0.0 °F29.95 in6.2 miSSE (150°)8.1 mph
9:20 AM0.0 °F0.0 °F29.92 in6.2 miSSE (160°)9.2 mph
9:50 AM56.0 °F46.0 °F61 %29.94 in25.0 miSE (140°)10.4 mphRainLight Rain Showers
9:50 AM0.0 °F0.0 °F29.95 in6.2 miSSE (150°)8.1 mph
10:20 AM0.0 °F0.0 °F29.95 in6.2 miSSE (160°)9.2 mph
10:50 AM0.0 °F0.0 °F29.95 in6.2 miSSE (160°)10.4 mph
11:20 AM0.0 °F0.0 °F29.95 in6.2 miSSE (160°)9.2 mph
11:50 AM0.0 °F0.0 °F29.95 in6.2 miSSE (150°)8.1 mph
12:20 PM57.2 °F46.4 °F67 %29.95 in6.2 miSouth (170°)8.1 mphPartly Cloudy
12:50 PM58.0 °F49.0 °F63 %29.93 in25.0 miSSE (150°)8.1 mph
12:50 PM57.2 °F46.4 °F67 %29.92 in6.2 miSouth (170°)8.1 mphPartly Cloudy
1:20 PM57.2 °F46.4 °F67 %29.92 in6.2 miSSE (160°)6.9 mphPartly Cloudy
1:50 PM59.0 °F46.4 °F63 %29.92 in6.2 miSouth (180°)8.1 mphPartly Cloudy
2:20 PM60.8 °F46.4 °F59 %29.92 in6.2 miSouth (190°)6.9 mphPartly Cloudy
2:50 PM60.8 °F46.4 °F59 %29.92 in6.2 miSSE (160°)5.8 mphPartly Cloudy
3:20 PM60.8 °F46.4 °F59 %29.92 in6.2 miSouth (170°)6.9 mphPartly Cloudy
3:50 PM58.0 °F44.0 °F50 %29.92 in25.0 miSSE (160°)5.8 mph
3:50 PM57.2 °F44.6 °F63 %29.92 in6.2 miSouth (170°)5.8 mphPartly Cloudy
4:20 PM57.2 °F44.6 °F63 %29.92 in6.2 miSouth (190°)3.5 mphPartly Cloudy
4:50 PM59.0 °F44.6 °F59 %29.92 in6.2 miSouth (170°)4.6 mphPartly Cloudy
5:20 PM59.0 °F44.6 °F59 %29.92 in6.2 miSSE (150°)3.5 mphPartly Cloudy
5:50 PM59.0 °F44.6 °F59 %29.92 in6.2 miSouth (170°)3.5 mphPartly Cloudy
6:20 PM59.0 °F44.6 °F59 %29.92 in6.2 miVariable2.3 mphPartly Cloudy
6:50 PM56.0 °F46.0 °F61 %29.92 in28.0 miWSW (240°)3.5 mphOvercast
6:50 PM59.0 °F44.6 °F59 %29.92 in6.2 miWSW (250°)2.3 mph
7:20 PM0.0 °F0.0 °F29.92 in6.2 miNW (320°)2.3 mph
7:50 PM0.0 °F0.0 °F29.95 in6.2 miNNW (340°)3.5 mph
8:20 PM0.0 °F0.0 °F29.95 in6.2 miNNW (340°)3.5 mph
8:50 PM0.0 °F0.0 °F29.95 in6.2 miNNW (330°)2.3 mph
9:20 PM0.0 °F0.0 °F29.95 in6.2 miNNW (340°)2.3 mph
9:50 PM53.0 °F49.0 °F84 %29.95 in31.0 miWNW (300°)1.2 mphRainRain
9:50 PM0.0 °F0.0 °F29.95 in6.2 miCalmMostly Cloudy
10:20 PM0.0 °F0.0 °F29.95 in6.2 miWNW (300°)3.5 mphPartly Cloudy
10:50 PM57.2 °F53.6 °F88 %29.95 in6.2 miNW (320°)2.3 mphLight Drizzle
11:20 PM57.2 °F53.6 °F88 %29.95 in6.2 miVariable2.3 mphMostly Cloudy
11:50 PM57.2 °F53.6 °F88 %29.98 in6.2 miNW (310°)2.3 mphRainLight Rain
Hourly data recorded from EGPO, located miles away from Stornoway, Scotland







STORIES FROM OUR PARTNERS